This demonstration page uses our WeatherBlox Daily Observations layout. Learn more.

Left ArrowRight Arrow

39.12711, -84.51439

Hourly Observations for December 6, 2021

Temp ( °F °C ) Dew Point ( °F °C ) Humidity (%) Winds ( mph kmh ) Pressure ( in mb ) Visibility ( mi km ) Precip ( " mm )
12:53 am 00:53 Cloudy 61 16.1 59 15 93 93 S 13 20 29.70 1006 10 16 0.06 1.52
1:42 am 01:42 Cloudy 61 16.1 59 15 93 93 S 14 22 29.68 1005 10 16 0.00 0.00
1:53 am 01:53 Partly Cloudy 61 16.1 59 15 93 93 S 15 24 29.67 1005 10 16 0.00 0.00
2:53 am 02:53 Cloudy with Light Rain 61 16.1 57 13.9 87 87 SSW 18 30 29.69 1005 10 16 0.01 0.25
3:49 am 03:49 Cloudy with Heavy Rain 57 14 57 14 100 100 SW 7 11 29.69 1005 2 3 0.14 3.56
3:53 am 03:53 Cloudy with Heavy Rain 58 14.4 58 14.4 100 100 SW 8 13 29.68 1005 1 2 0.23 5.84
4:13 am 04:13 Cloudy with Heavy Rain 57 13.9 57 13.9 100 100 SW 7 11 29.70 1006 2 3 0.24 6.10
4:21 am 04:21 Cloudy with Light Rain 57 13.9 57 13.9 100 100 SW 7 11 29.70 1006 5 8 0.25 6.35
4:31 am 04:31 Cloudy with Heavy Rain 57 13.9 57 13.9 100 100 VRB 5 7 29.70 1006 3 4 0.31 7.87
4:45 am 04:45 Cloudy with Rain 58 14.4 57 13.9 97 97 VRB 5 7 29.68 1005 5 8 0.36 9.14
4:53 am 04:53 Cloudy with Light Rain 57 13.9 57 13.9 100 100 S 3 6 29.67 1005 7 11 0.37 9.40
5:53 am 05:53 Cloudy with Light Rain 56 13.3 56 13.3 100 100 S 7 11 29.68 1005 6 10 0.05 1.27
6:00 am 06:00 Cloudy with Light Rain 56 13.3 56 13.3 100 100 SSW 7 11 29.69 1005 8 13 0.01 0.25
6:53 am 06:53 Cloudy with Light Rain 53 11.7 52 11.1 96 96 NW 25 41 29.74 1007 6 10 0.06 1.52
6:58 am 06:58 Cloudy with Light Rain 52 11.1 50 10 93 93 WNW 17 28 29.77 1008 7 11 0.01 0.25
7:09 am 07:09 Cloudy with Heavy Rain 49 9.4 47 8.3 93 93 NW 15 24 29.77 1008 4 6 0.05 1.27
7:53 am 07:53 Cloudy with Rain 45 7.2 40 4.4 83 83 NW 13 20 29.82 1010 7 11 0.12 3.05
8:36 am 08:36 Cloudy with Light Rain 44 6.7 38 3.3 79 79 WNW 8 13 29.85 1011 10 16 0.02 0.51
8:53 am 08:53 Cloudy with Light Rain 44 6.7 37 2.8 76 76 NW 14 22 29.83 1010 10 16 0.02 0.51
9:53 am 09:53 Mostly Cloudy 42 5.6 34 1.1 73 73 WNW 9 15 29.92 1013 10 16 0.00 0.00
10:25 am 10:25 Mostly Sunny 42 5.6 28 -2.2 58 58 W 18 30 29.97 1015 10 16 0.00 0.00
10:53 am 10:53 Mostly Sunny 42 5.6 29 -1.7 60 60 W 21 33 29.97 1015 10 16 0.00 0.00
11:53 am 11:53 Mostly Sunny 41 5 29 -1.7 62 62 W 13 20 30.00 1016 10 16 0.00 0.00
12:53 pm 12:53 Mostly Cloudy 39 3.9 27 -2.8 62 62 W 17 28 30.02 1017 10 16 0.00 0.00
1:53 pm 13:53 Mostly Cloudy 38 3.3 24 -4.4 57 57 W 17 28 30.06 1018 10 16 0.00 0.00
2:53 pm 14:53 Mostly Sunny 40 4.4 22 -5.6 49 49 W 20 31 30.07 1018 10 16 0.00 0.00
3:53 pm 15:53 Sunny 39 3.9 21 -6.1 48 48 W 14 22 30.11 1020 10 16 0.00 0.00
4:53 pm 16:53 Sunny 38 3.3 20 -6.7 48 48 WNW 12 19 30.14 1021 10 16 0.00 0.00
5:53 pm 17:53 Clear 35 1.7 21 -6.1 57 57 W 8 13 30.17 1022 10 16 0.00 0.00
6:53 pm 18:53 Clear 35 1.7 20 -6.7 54 54 W 14 22 30.21 1023 10 16 0.00 0.00
7:53 pm 19:53 Clear 35 1.7 19 -7.2 52 52 WNW 7 11 30.22 1023 10 16 0.00 0.00
8:53 pm 20:53 Clear 34 1.1 19 -7.2 54 54 W 14 22 30.24 1024 10 16 0.00 0.00
9:53 pm 21:53 Mostly Clear 33 0.6 21 -6.1 61 61 W 12 19 30.26 1025 10 16 0.00 0.00
10:53 pm 22:53 Clear 32 0 15 -9.4 50 50 NNW 10 17 30.24 1024 10 16 0.00 0.00
11:53 pm 23:53 Clear 30 -1.1 9 -12.8 41 41 NW 8 13 30.27 1025 10 16 0.00 0.00

Powered by AerisWeather